Ahoskie, NC

1:30 PM EST on November 17, 2017 (GMT -0500)
Tri County

Weather History for KASJ - January, 2014

Change the Weather History Date:

Wednesday, January 29, 2014

  Actual Average (KEMV) Record (KEMV)
Temperature  
Mean Temperature 17 °F -  
Max Temperature 23 °F 48 °F 71 °F (2013)
Min Temperature 10 °F 22 °F 5 °F (2014)
Degree Days  
Heating Degree Days 48    
Moisture  
Dew Point 7 °F    
Average Humidity 64    
Maximum Humidity 89    
Minimum Humidity 41    
Precipitation  
Precipitation 0.12 in - - ()
Sea Level Pressure  
Sea Level Pressure 30.31 in    
Wind  
Wind Speed 6 mph (North)    
Max Wind Speed 12 mph    
Max Gust Speed 20 mph    
Visibility 10 miles    
Events      
Averages and records for this station are not official NWS values.
T = Trace of Precipitation, MM = Missing Value Source: NWS Daily Summary

Daily Weather History Graph

Daily Weather History Graph

Search for Another Location

Airport or City:

Trip Planner

Search our weather history database for the weather conditions in past years. The results will help you decide how hot, cold, wet, or windy it might be!

Date:

Astronomy

Jan. 29, 2014 Rise Set
Actual Time 7:12 AM EST 5:31 PM EST
Civil Twilight 6:44 AM EST 5:59 PM EST
Nautical Twilight 6:13 AM EST 6:30 PM EST
Astronomical Twilight 5:43 AM EST 7:00 PM EST
Moon 5:46 AM EST (1/29) 4:28 PM EST (1/29)
Length of Visible Light 11h 14m
Length of Day
10h 19m
Waning Crescent, 2% of the Moon is Illuminated
Jan 29
Waning Crescent
Jan 30
New
Feb 6
First Quarter
Feb 14
Full
Feb 22
Last Quarter

Hourly Weather History & Observations

Time (EST) Temp. Windchill Dew Point Humidity Pressure Visibility Wind Dir Wind Speed Gust Speed Precip Events Conditions
3:35 AM - - - N/A% 30.20 in - North 5.8 mph - N/A   Unknown
3:55 AM 14.7 °F 5.9 °F 12.0 °F 89% 30.19 in 1.8 mi NNW 5.8 mph - N/A   Unknown
4:15 AM 14.9 °F 5.0 °F 11.8 °F 88% 30.20 in 3.0 mi North 6.9 mph - N/A   Clear
4:35 AM 15.3 °F 4.4 °F 11.5 °F 85% 30.19 in 10.0 mi NNW 8.1 mph - N/A   Clear
4:55 AM 15.4 °F 3.8 °F 11.3 °F 84% 30.19 in 10.0 mi North 9.2 mph - N/A   Clear
5:15 AM 15.4 °F 5.6 °F 11.1 °F 83% 30.19 in 10.0 mi North 6.9 mph - N/A   Clear
5:35 AM 15.4 °F 5.6 °F 11.1 °F 83% 30.20 in 10.0 mi North 6.9 mph - N/A   Clear
5:55 AM 15.6 °F 5.9 °F 10.9 °F 82% 30.22 in 10.0 mi North 6.9 mph - N/A   Clear
6:15 AM 15.6 °F 7.0 °F 10.6 °F 80% 30.24 in 10.0 mi NNW 5.8 mph - N/A   Clear
6:35 AM 15.8 °F 6.1 °F 10.8 °F 80% 30.25 in 10.0 mi North 6.9 mph - N/A   Clear
6:55 AM 15.8 °F 5.1 °F 10.4 °F 79% 30.24 in 10.0 mi NNW 8.1 mph - N/A   Clear
7:15 AM 16.2 °F 5.5 °F 10.4 °F 78% 30.24 in 10.0 mi North 8.1 mph - N/A   Clear
7:35 AM 16.2 °F 4.7 °F 10.2 °F 77% 30.26 in 10.0 mi North 9.2 mph - 0.01 in   Clear
7:55 AM 16.3 °F 5.7 °F 10.0 °F 76% 30.27 in 10.0 mi North 8.1 mph - 0.01 in   Clear
8:15 AM 16.5 °F 3.6 °F 9.7 °F 74% 30.27 in 10.0 mi North 11.5 mph 16.1 mph N/A   Clear
8:35 AM 16.7 °F 7.2 °F 9.5 °F 73% 30.29 in 10.0 mi NNW 6.9 mph - N/A   Clear
8:55 AM 16.9 °F 6.4 °F 9.0 °F 71% 30.30 in 10.0 mi North 8.1 mph - N/A   Clear
9:15 AM 17.2 °F 6.8 °F 8.6 °F 69% 30.31 in 10.0 mi North 8.1 mph - N/A   Clear
9:35 AM 17.4 °F 9.1 °F 7.7 °F 66% 30.32 in 10.0 mi North 5.8 mph - N/A   Clear
9:55 AM 17.6 °F 7.3 °F 7.2 °F 64% 30.33 in 10.0 mi NNW 8.1 mph - N/A   Clear
10:15 AM 18.1 °F 6.3 °F 6.1 °F 59% 30.33 in 10.0 mi North 10.4 mph - N/A   Clear
10:35 AM 18.5 °F 6.1 °F 5.0 °F 56% 30.33 in 10.0 mi North 11.5 mph 19.6 mph N/A   Clear
10:55 AM 19.2 °F 7.0 °F 3.4 °F 50% 30.34 in 10.0 mi North 11.5 mph - N/A   Clear
11:15 AM 19.4 °F 8.6 °F 1.9 °F 47% 30.34 in 10.0 mi North 9.2 mph - N/A   Clear
11:35 AM 19.4 °F 7.9 °F 2.3 °F 48% 30.35 in 10.0 mi North 10.4 mph - N/A   Clear
11:55 AM 19.9 °F 8.6 °F 2.8 °F 48% 30.33 in 10.0 mi North 10.4 mph - N/A   Clear
12:15 PM 20.3 °F 11.5 °F 3.0 °F 47% 30.33 in 10.0 mi North 6.9 mph - 0.01 in   Clear
12:35 PM 20.7 °F 13.0 °F 3.2 °F 47% 30.31 in 10.0 mi North 5.8 mph - 0.01 in   Clear
12:55 PM 20.8 °F 12.1 °F 3.9 °F 48% 30.32 in 10.0 mi North 6.9 mph - 0.01 in   Clear
1:15 PM 21.0 °F 14.6 °F 3.9 °F 48% 30.32 in 10.0 mi NNW 4.6 mph - N/A   Clear
1:35 PM 21.2 °F 14.9 °F 3.2 °F 46% 30.32 in 10.0 mi NNW 4.6 mph - N/A   Clear
1:55 PM 21.4 °F 12.8 °F 3.6 °F 46% 30.31 in 10.0 mi North 6.9 mph - N/A   Clear
2:15 PM 22.1 °F 13.7 °F 3.2 °F 44% 30.31 in 10.0 mi North 6.9 mph - N/A   Clear
2:35 PM 22.5 °F 14.1 °F 2.5 °F 42% 30.31 in 10.0 mi North 6.9 mph - N/A   Clear
2:55 PM 22.5 °F 14.1 °F 3.2 °F 44% 30.31 in 10.0 mi North 6.9 mph - N/A   Clear
3:15 PM 22.6 °F 15.3 °F 2.5 °F 42% 30.31 in 10.0 mi North 5.8 mph - N/A   Clear
3:35 PM 22.8 °F 18.2 °F 3.6 °F 44% 30.31 in 10.0 mi North 3.5 mph - N/A   Clear
3:55 PM 23.0 °F - 2.8 °F 42% 30.32 in 10.0 mi Calm Calm - N/A   Clear
4:15 PM 23.0 °F - 3.4 °F 43% 30.32 in 10.0 mi Calm Calm - N/A   Clear
4:35 PM 23.5 °F - 3.0 °F 41% 30.33 in 10.0 mi Calm Calm - N/A   Clear
4:55 PM 23.0 °F - 3.9 °F 44% 30.33 in 10.0 mi Calm Calm - N/A   Clear
5:15 PM 22.8 °F - 3.7 °F 44% 30.33 in 10.0 mi Calm Calm - N/A   Clear
5:35 PM 21.6 °F - 5.5 °F 50% 30.34 in 10.0 mi Calm Calm - N/A   Clear
5:55 PM 21.7 °F - 4.5 °F 47% 30.33 in 10.0 mi Calm Calm - 0.01 in   Clear
6:15 PM 20.3 °F - 7.0 °F 56% 30.34 in 10.0 mi Calm Calm - N/A   Clear
6:35 PM 19.8 °F - 6.6 °F 57% 30.35 in 10.0 mi Calm Calm - 0.01 in   Clear
6:55 PM 19.4 °F - 9.1 °F 64% 30.36 in 10.0 mi Calm Calm - 0.01 in   Clear
7:15 PM 18.3 °F - 8.1 °F 64% 30.35 in 10.0 mi Calm Calm - N/A   Clear
7:35 PM 19.0 °F - 8.6 °F 64% 30.36 in 10.0 mi Calm Calm - 0.01 in   Clear
7:55 PM 18.1 °F - 10.6 °F 72% 30.37 in 10.0 mi Calm Calm - 0.01 in   Clear
8:15 PM 18.0 °F - 9.7 °F 70% 30.37 in 10.0 mi Calm Calm - 0.01 in   Clear
8:35 PM 17.2 °F - 9.3 °F 71% 30.37 in 10.0 mi Calm Calm - 0.01 in   Clear
8:55 PM 16.9 °F - 9.9 °F 74% 30.37 in 10.0 mi Calm Calm - 0.02 in   Clear
9:15 PM 16.9 °F - 9.3 °F 72% 30.37 in 10.0 mi Calm Calm - 0.01 in   Clear
9:35 PM 16.5 °F - 9.5 °F 74% 30.37 in 10.0 mi Calm Calm - 0.01 in   Clear
9:55 PM 16.2 °F - 9.5 °F 75% 30.38 in 10.0 mi Calm Calm - 0.02 in   Clear
10:15 PM 15.6 °F - 10.0 °F 79% 30.39 in 10.0 mi Calm Calm - 0.01 in   Clear
10:35 PM 14.9 °F - 10.0 °F 81% 30.40 in 10.0 mi Calm Calm - 0.01 in   Clear
10:55 PM 14.5 °F - 9.9 °F 82% 30.40 in 10.0 mi Calm Calm - 0.02 in   Clear
11:15 PM 12.2 °F - 8.6 °F 85% 30.40 in 10.0 mi Calm Calm - N/A   Clear
11:35 PM 11.7 °F - 7.5 °F 83% 30.40 in 10.0 mi Calm Calm - N/A   Clear
11:55 PM 10.4 °F - 7.7 °F 89% 30.39 in 10.0 mi Calm Calm - 0.01 in   Clear